AB4KN Weather Reports


time (UTC)temp
C
wind
direction
speed
KPH
gust
KPH
rain 1hr
cm
rain 24hr
cm
rain mn
cm
humidity
%
barometer
mb
20260902165521 35 286 0.0 0.0 0.00 0.00 0.00 47 1024.9
20260902165016 35 298 0.0 0.0 0.00 0.00 0.00 46 1025.0
20260902164511 34 299 0.0 0.0 0.00 0.00 0.00 49 1024.7
20260902164010 33 299 0.0 0.0 0.00 0.00 0.00 49 1024.8
20260902163506 34 288 0.0 0.0 0.00 0.00 0.00 50 1024.9
20260902163004 34 282 0.0 0.0 0.00 0.00 0.00 51 1025.0
20260902162458 33 270 0.0 0.0 0.00 0.00 0.00 54 1025.1
20260902161953 33 251 0.0 0.0 0.00 0.00 0.00 52 1025.4
20260902161448 33 296 0.0 0.0 0.00 0.00 0.00 53 1025.2
20260902160944 33 263 0.0 0.0 0.00 0.00 0.00 55 1025.4
20260902160439 33 277 0.0 0.0 0.00 0.00 0.00 57 1025.1
20260902155937 33 293 0.0 0.0 0.00 0.00 0.00 57 1025.3
20260902155433 32 303 0.0 0.0 0.00 0.00 0.00 58 1025.4
20260902154926 32 272 0.0 0.0 0.00 0.00 0.00 57 1025.4
20260902154422 32 302 0.0 0.0 0.00 0.00 0.00 58 1025.4
20260902153921 32 301 0.0 0.0 0.00 0.00 0.00 59 1025.6
20260902153420 32 258 0.0 0.0 0.00 0.00 0.00 60 1025.5
20260902152916 32 227 0.0 0.0 0.00 0.00 0.00 60 1025.4
20260902152412 31 290 0.0 0.0 0.00 0.00 0.00 61 1025.5
20260902151907 31 290 0.0 0.0 0.00 0.00 0.00 61 1025.7
20260902151402 31 283 0.0 0.0 0.00 0.00 0.00 62 1025.5
20260902150857 31 283 0.0 0.0 0.00 0.00 0.00 62 1025.4
20260902150353 31 291 0.0 0.0 0.00 0.00 0.00 63 1025.7
20260902145852 31 291 0.0 0.0 0.00 0.00 0.00 63 1025.6
20260902145348 31 282 0.0 0.0 0.00 0.00 0.00 63 1025.6
20260902144843 31 266 0.0 0.0 0.00 0.00 0.00 64 1025.4
20260902144339 30 265 0.0 0.0 0.00 0.00 0.00 64 1025.5
20260902143833 30 265 0.0 0.0 0.00 0.00 0.00 65 1025.4
20260902143328 30 270 0.0 0.0 0.00 0.00 0.00 67 1025.4
20260902142824 30 290 0.0 0.0 0.00 0.00 0.00 67 1025.5
20260902142320 30 218 0.0 0.0 0.00 0.00 0.00 69 1025.4
20260902141815 29 288 0.0 0.0 0.00 0.00 0.00 69 1025.4
20260902141311 28 284 0.0 0.0 0.00 0.00 0.00 72 1025.5
20260902140810 28 277 0.0 0.0 0.00 0.00 0.00 73 1025.5
20260902140305 28 282 0.0 0.0 0.00 0.00 0.00 75 1025.6
20260902135804 28 273 0.0 0.0 0.00 0.00 0.00 75 1025.3
20260902135300 28 272 0.0 0.0 0.00 0.00 0.00 75 1025.3
20260902134759 27 281 0.0 0.0 0.00 0.00 0.00 76 1025.5
20260902134255 27 262 0.0 0.0 0.00 0.00 0.00 78 1025.5
20260902133750 27 262 0.0 0.0 0.00 0.00 0.00 79 1025.5
20260902133249 27 262 0.0 0.0 0.00 0.00 0.00 80 1025.6
20260902132745 26 262 0.0 0.0 0.00 0.00 0.00 79 1025.3
20260902132241 26 262 0.0 0.0 0.00 0.00 0.00 81 1025.3
20260902131736 26 262 0.0 0.0 0.00 0.00 0.00 82 1025.4
20260902131232 26 262 0.0 0.0 0.00 0.00 0.00 82 1025.4
20260902130726 26 262 0.0 0.0 0.00 0.00 0.00 82 1025.5
20260902130222 25 262 0.0 0.0 0.00 0.00 0.00 83 1025.2
20260902125717 25 262 0.0 0.0 0.00 0.00 0.00 84 1025.5
20260902125214 25 262 0.0 0.0 0.00 0.00 0.00 83 1025.2
20260902124710 25 262 0.0 0.0 0.00 0.00 0.00 86 1025.3
20260902124210 24 262 0.0 0.0 0.00 0.00 0.00 86 1025.3
20260902123705 24 262 0.0 0.0 0.00 0.00 0.00 87 1025.3
20260902123201 24 262 0.0 0.0 0.00 0.00 0.00 87 1025.3
20260902122700 24 262 0.0 0.0 0.00 0.00 0.00 87 1025.2
20260902122156 23 262 0.0 0.0 0.00 0.00 0.00 87 1025.0
20260902121650 23 262 0.0 0.0 0.00 0.00 0.00 87 1025.1
20260902121145 23 262 0.0 0.0 0.00 0.00 0.00 88 1025.0
20260902120641 23 262 0.0 0.0 0.00 0.00 0.00 88 1025.0
20260902120137 23 262 0.0 0.0 0.00 0.00 0.00 88 1025.0
20260902115632 23 262 0.0 0.0 0.00 0.00 0.00 88 1025.1
20260902115128 23 262 0.0 0.0 0.00 0.00 0.00 87 1024.8
20260902114623 23 262 0.0 0.0 0.00 0.00 0.00 88 1024.8
20260902114118 23 262 0.0 0.0 0.00 0.00 0.00 88 1025.0
20260902113614 23 262 0.0 0.0 0.00 0.00 0.00 88 1024.7
20260902113108 23 262 0.0 0.0 0.00 0.00 0.00 87 1024.7
20260902112603 23 262 0.0 0.0 0.00 0.00 0.00 87 1024.9
20260902112100 23 262 0.0 0.0 0.00 0.00 0.00 87 1024.8
20260902111556 23 262 0.0 0.0 0.00 0.00 0.00 87 1024.9
20260902111051 23 262 0.0 0.0 0.00 0.00 0.00 87 1024.7
20260902110548 23 262 0.0 0.0 0.00 0.00 0.00 87 1024.7
20260902110043 23 262 0.0 0.0 0.00 0.00 0.00 87 1024.7
20260902105537 23 262 0.0 0.0 0.00 0.00 0.00 87 1024.5
20260902105032 23 262 0.0 0.0 0.00 0.00 0.00 87 1024.5
20260902104527 23 262 0.0 0.0 0.00 0.00 0.00 87 1024.6
20260902104027 23 262 0.0 0.0 0.00 0.00 0.00 87 1024.5
20260902103523 23 262 0.0 0.0 0.00 0.00 0.00 87 1024.6
20260902103018 23 262 0.0 0.0 0.00 0.00 0.00 88 1024.6
20260902102515 23 262 0.0 0.0 0.00 0.00 0.00 87 1024.2
20260902102011 23 262 0.0 0.0 0.00 0.00 0.00 87 1024.3
20260902101506 23 262 0.0 0.0 0.00 0.00 0.00 87 1024.2
20260902101005 23 262 0.0 0.0 0.00 0.00 0.00 87 1024.4
20260902100500 23 262 0.0 0.0 0.00 0.00 0.00 87 1024.4
20260902100000 23 262 0.0 0.0 0.00 0.00 0.00 87 1024.4
20260902095454 23 262 0.0 0.0 0.00 0.00 0.00 87 1024.3
20260902094954 23 262 0.0 0.0 0.00 0.00 0.00 86 1024.2
20260902094449 23 262 0.0 0.0 0.00 0.00 0.00 86 1024.3
20260902093944 23 262 0.0 0.0 0.00 0.00 0.00 86 1024.0
20260902093439 24 262 0.0 0.0 0.00 0.00 0.00 86 1024.0
20260902092938 23 262 0.0 0.0 0.00 0.00 0.00 86 1023.9
20260902092434 24 262 0.0 0.0 0.00 0.00 0.00 86 1023.9
20260902091934 24 262 0.0 0.0 0.00 0.00 0.00 85 1024.0
20260902091429 24 262 0.0 0.0 0.00 0.00 0.00 86 1023.7
20260902090925 24 262 0.0 0.0 0.00 0.00 0.00 85 1023.7
20260902090426 24 262 0.0 0.0 0.00 0.00 0.00 85 1024.0
20260902085924 24 262 0.0 0.0 0.00 0.00 0.00 85 1023.8
20260902085420 24 262 0.0 0.0 0.00 0.00 0.00 86 1023.8
20260902084915 24 262 0.0 0.0 0.00 0.00 0.00 85 1023.7
20260902084412 24 262 0.0 0.0 0.00 0.00 0.00 85 1023.6
20260902083907 24 262 0.0 0.0 0.00 0.00 0.00 85 1023.6
20260902083407 24 262 0.0 0.0 0.00 0.00 0.00 85 1023.6
20260902082902 24 262 0.0 0.0 0.00 0.00 0.00 85 1023.7
20260902082357 24 262 0.0 0.0 0.00 0.00 0.00 85 1023.6
20260902081854 25 262 0.0 0.0 0.00 0.00 0.00 85 1023.6
20260902081350 25 262 0.0 0.0 0.00 0.00 0.00 84 1023.6
20260902080844 25 262 0.0 0.0 0.00 0.00 0.00 84 1023.6
20260902080341 25 262 0.0 0.0 0.00 0.00 0.00 84 1023.7
20260902075840 25 262 0.0 0.0 0.00 0.00 0.00 84 1023.5
20260902075337 25 262 0.0 0.0 0.00 0.00 0.00 84 1023.5
20260902074832 25 262 0.0 0.0 0.00 0.00 0.00 84 1023.4
20260902074327 25 262 0.0 0.0 0.00 0.00 0.00 84 1023.4
20260902073822 25 262 0.0 0.0 0.00 0.00 0.00 84 1023.6
20260902073319 25 262 0.0 0.0 0.00 0.00 0.00 84 1023.5
20260902072814 25 262 0.0 0.0 0.00 0.00 0.00 84 1023.5
20260902072310 25 262 0.0 0.0 0.00 0.00 0.00 84 1023.4
20260902071806 25 262 0.0 0.0 0.00 0.00 0.00 84 1023.5
20260902071300 25 262 0.0 0.0 0.00 0.00 0.00 85 1023.4
20260902070757 25 262 0.0 0.0 0.00 0.00 0.00 85 1023.9
20260902070256 25 262 0.0 0.0 0.00 0.00 0.00 84 1023.5
20260902065755 25 262 0.0 0.0 0.00 0.00 0.00 84 1023.6
20260902065250 25 262 0.0 0.0 0.00 0.00 0.00 84 1023.6
20260902064746 25 262 0.0 0.0 0.00 0.00 0.00 84 1023.8
20260902064242 25 262 0.0 0.0 0.00 0.00 0.00 83 1023.9
20260902063738 25 262 0.0 0.0 0.00 0.00 0.00 84 1023.5
20260902063237 25 262 0.0 0.0 0.00 0.00 0.00 84 1023.6
20260902062731 25 262 0.0 0.0 0.00 0.00 0.00 84 1023.8
20260902062226 25 262 0.0 0.0 0.00 0.00 0.00 84 1023.7
20260902061725 25 262 0.0 0.0 0.00 0.00 0.00 83 1023.7
20260902061221 25 263 0.0 0.0 0.00 0.00 0.00 83 1023.8
20260902060718 25 263 0.0 0.0 0.00 0.00 0.00 83 1023.9
20260902060213 25 263 0.0 0.0 0.00 0.00 0.00 82 1023.5
20260902055709 25 263 0.0 0.0 0.00 0.00 0.00 81 1023.8
20260902055205 25 263 0.0 0.0 0.00 0.00 0.00 81 1023.8
20260902054700 25 263 0.0 0.0 0.00 0.00 0.00 81 1023.7
20260902054155 25 263 0.0 0.0 0.00 0.00 0.00 81 1023.9
20260902053651 26 263 0.0 0.0 0.00 0.00 0.00 81 1023.8
20260902053151 26 263 0.0 0.0 0.00 0.00 0.00 80 1024.0
20260902052650 26 263 0.0 0.0 0.00 0.00 0.00 80 1024.0
20260902052146 26 263 0.0 0.0 0.00 0.00 0.00 79 1023.8
20260902051644 26 263 0.0 0.0 0.00 0.00 0.00 79 1023.9
20260902051139 26 263 0.0 0.0 0.00 0.00 0.00 78 1024.0
20260902050633 26 262 0.0 0.0 0.00 0.00 0.00 78 1023.9
20260902050129 26 261 0.0 0.0 0.00 0.00 0.00 77 1024.2
20260902045624 26 258 0.0 0.0 0.00 0.00 0.00 77 1023.9
20260902045120 26 281 0.0 0.0 0.00 0.00 0.00 76 1023.7
20260902044620 26 281 0.0 0.0 0.00 0.00 0.00 77 1023.7
20260902044116 26 281 0.0 0.0 0.00 0.00 0.00 77 1023.7
20260902043611 26 281 0.0 0.0 0.00 0.00 0.00 77 1023.7
20260902043106 26 281 0.0 0.0 0.00 0.00 0.00 77 1023.8
20260902042606 26 281 0.0 0.0 0.00 0.00 0.00 77 1023.8
20260902042101 26 281 0.0 0.0 0.00 0.00 0.00 77 1024.1
20260902041601 26 281 0.0 0.0 0.00 0.00 0.00 77 1023.9
20260902041055 26 281 0.0 0.0 0.00 0.00 0.00 77 1023.9
20260902040549 26 281 0.0 0.0 0.00 0.00 0.00 78 1024.1
20260902040045 26 281 0.0 0.0 0.00 0.00 0.00 78 1023.9
20260902035543 26 281 0.0 0.0 0.00 0.00 0.00 77 1023.9
20260902035039 26 281 0.0 0.0 0.00 0.00 0.00 77 1024.0
20260902034538 26 281 0.0 0.0 0.00 0.00 0.00 78 1024.2
20260902034037 26 281 0.0 0.0 0.00 0.00 0.00 78 1023.9
20260902033536 26 281 0.0 0.0 0.00 0.00 0.00 77 1023.9
20260902033032 26 281 0.0 0.0 0.00 0.00 0.00 77 1024.0
20260902032530 26 281 0.0 0.0 0.00 0.00 0.00 75 1024.0
20260902032025 27 281 0.0 0.0 0.00 0.00 0.00 74 1024.2
20260902031520 27 281 0.0 0.0 0.00 0.00 0.00 74 1024.1
20260902031016 27 281 0.0 0.0 0.00 0.00 0.00 74 1024.1
20260902030511 27 281 0.0 0.0 0.00 0.00 0.00 73 1024.3
20260902030011 27 281 0.0 0.0 0.00 0.00 0.00 72 1024.1
20260902025505 27 281 0.0 0.0 0.00 0.00 0.00 72 1023.9
20260902025000 27 281 0.0 0.0 0.00 0.00 0.00 71 1024.0
20260902024456 27 281 0.0 0.0 0.00 0.00 0.00 73 1023.9
20260902023950 27 281 0.0 0.0 0.00 0.00 0.00 73 1023.9
20260902023446 27 281 0.0 0.0 0.00 0.00 0.00 72 1023.9
20260902022945 27 281 0.0 0.0 0.00 0.00 0.00 71 1023.9
20260902022441 27 281 0.0 0.0 0.00 0.00 0.00 72 1023.9
20260902021936 27 281 0.0 0.0 0.00 0.00 0.00 72 1023.8
20260902021431 27 281 0.0 0.0 0.00 0.00 0.00 71 1023.7
20260902020926 27 281 0.0 0.0 0.00 0.00 0.00 71 1023.6
20260902020423 27 281 0.0 0.0 0.00 0.00 0.00 70 1023.7
20260902015918 28 281 0.0 0.0 0.00 0.00 0.00 70 1023.6
20260902015414 28 281 0.0 0.0 0.00 0.00 0.00 70 1023.8
20260902014909 28 281 0.0 0.0 0.00 0.00 0.00 70 1023.7
20260902014406 28 281 0.0 0.0 0.00 0.00 0.00 69 1023.5
20260902013904 28 281 0.0 0.0 0.00 0.00 0.00 68 1023.4
20260902013400 28 281 0.0 0.0 0.00 0.00 0.00 69 1023.2
20260902012855 28 281 0.0 0.0 0.00 0.00 0.00 67 1023.3
20260902012351 28 281 0.0 0.0 0.00 0.00 0.00 68 1023.2
20260902011847 28 281 0.0 0.0 0.00 0.00 0.00 67 1023.1
20260902011341 28 281 0.0 0.0 0.00 0.00 0.00 64 1023.0
20260902010841 28 281 0.0 0.0 0.00 0.00 0.00 65 1023.1
20260902010336 28 281 0.0 0.0 0.00 0.00 0.00 65 1023.0
20260902005834 28 281 0.0 0.0 0.00 0.00 0.00 65 1023.0
20260902005329 29 281 0.0 0.0 0.00 0.00 0.00 65 1023.2
20260902004824 29 281 0.0 0.0 0.00 0.00 0.00 63 1022.9
20260902004319 30 281 0.0 0.0 0.00 0.00 0.00 62 1023.0
20260902003814 30 281 0.0 0.0 0.00 0.00 0.00 61 1022.7
20260902003309 30 281 0.0 0.0 0.00 0.00 0.00 61 1023.0
20260902002805 30 281 0.0 0.0 0.00 0.00 0.00 61 1022.7
20260902002306 30 283 0.0 0.0 0.00 0.00 0.00 59 1022.6
20260902001800 30 283 0.0 0.0 0.00 0.00 0.00 59 1023.0
20260902001255 30 284 0.0 0.0 0.00 0.00 0.00 58 1023.0
20260902000749 30 284 0.0 0.0 0.00 0.00 0.00 58 1022.9
20260902000244 31 284 0.0 0.0 0.00 0.00 0.00 57 1023.2
20260901235739 31 285 0.0 0.0 0.00 0.00 0.00 56 1022.9
20260901235234 31 285 0.0 0.0 0.00 0.00 0.00 55 1023.0
20260901234733 31 285 0.0 0.0 0.00 0.00 0.00 55 1023.0
20260901234233 31 285 0.0 0.0 0.00 0.00 0.00 54 1023.1
20260901233728 31 285 0.0 0.0 0.00 0.00 0.00 53 1023.0
20260901233224 32 282 0.0 0.0 0.00 0.00 0.00 53 1023.1
20260901232719 32 282 0.0 0.0 0.00 0.00 0.00 52 1023.2
20260901232214 32 282 0.0 0.0 0.00 0.00 0.00 52 1023.2
20260901231711 32 282 0.0 0.0 0.00 0.00 0.00 52 1023.3
20260901231206 32 282 0.0 0.0 0.00 0.00 0.00 52 1023.2
20260901230702 32 282 0.0 0.0 0.00 0.00 0.00 51 1023.0
20260901230201 32 286 0.0 0.0 0.00 0.00 0.00 51 1023.0
20260901225657 32 297 0.0 0.0 0.00 0.00 0.00 50 1022.7
20260901225151 32 297 0.0 0.0 0.00 0.00 0.00 50 1023.2
20260901224647 33 297 0.0 0.0 0.00 0.00 0.00 50 1023.2
20260901224143 33 297 0.0 0.0 0.00 0.00 0.00 49 1023.0
20260901223639 33 297 0.0 0.0 0.00 0.00 0.00 48 1022.9
20260901223134 33 297 0.0 0.0 0.00 0.00 0.00 48 1022.7
20260901222630 33 297 0.0 0.0 0.00 0.00 0.00 50 1022.9
20260901222126 33 297 0.0 0.0 0.00 0.00 0.00 50 1022.9
20260901221622 33 276 0.0 0.0 0.00 0.00 0.00 51 1022.7
20260901221117 33 263 0.0 0.0 0.00 0.00 0.00 50 1023.0
20260901220616 33 274 0.0 0.0 0.00 0.00 0.00 50 1022.9
20260901220115 33 278 0.0 0.0 0.00 0.00 0.00 51 1022.9
20260901215614 33 238 0.0 0.0 0.00 0.00 0.00 50 1023.0
20260901215108 33 238 0.0 0.0 0.00 0.00 0.00 49 1023.2
20260901214607 33 271 0.0 0.0 0.00 0.00 0.00 49 1023.0
20260901214107 33 287 0.0 0.0 0.00 0.00 0.00 49 1023.1
20260901213601 33 275 0.0 0.0 0.00 0.00 0.00 50 1023.0
20260901213055 33 292 0.0 0.0 0.00 0.00 0.00 49 1022.9
20260901212555 33 261 0.0 0.0 0.00 0.00 0.00 47 1023.0
20260901212052 32 263 0.0 0.0 0.00 0.00 0.00 53 1023.0
20260901211547 32 262 0.0 0.0 0.00 0.00 0.00 52 1023.1
20260901211043 32 262 0.0 0.0 0.00 0.00 0.00 52 1023.3
20260901210538 32 262 0.0 0.0 0.00 0.00 0.00 52 1023.1
20260901210035 32 262 0.0 0.0 0.00 0.00 0.00 51 1023.2
20260901205529 32 262 0.0 0.0 0.00 0.00 0.00 51 1022.9
20260901205024 32 262 0.0 0.0 0.00 0.00 0.00 51 1023.3
20260901204520 33 262 0.0 0.0 0.00 0.00 0.00 51 1023.3
20260901204015 33 262 0.0 0.0 0.00 0.00 0.00 49 1023.2
20260901203509 33 262 0.0 0.0 0.00 0.00 0.00 47 1023.2
20260901203004 33 259 0.0 0.0 0.00 0.00 0.00 47 1023.4
20260901202459 33 281 0.0 0.0 0.00 0.00 0.00 48 1023.4
20260901201955 33 299 0.0 0.0 0.00 0.00 0.00 48 1023.6
20260901201450 33 276 0.0 0.0 0.00 0.00 0.00 50 1023.5
20260901200944 33 276 0.0 0.0 0.00 0.00 0.00 49 1023.3
20260901200439 33 276 0.0 0.0 0.00 0.00 0.00 48 1023.4
20260901195938 34 263 0.0 0.0 0.00 0.00 0.00 47 1023.6
20260901195437 33 263 0.0 0.0 0.00 0.00 0.00 45 1023.5
20260901194932 34 268 0.0 0.0 0.00 0.00 0.00 46 1023.6
20260901194427 33 251 0.0 0.0 0.00 0.00 0.00 44 1023.9
20260901193923 34 257 0.0 0.0 0.00 0.00 0.00 43 1023.7
20260901193422 34 312 0.0 0.0 0.00 0.00 0.00 47 1023.8
20260901192921 34 306 0.0 0.0 0.00 0.00 0.00 46 1024.0
20260901192417 34 284 0.0 0.0 0.00 0.00 0.00 46 1024.0
20260901191913 34 261 0.0 0.0 0.00 0.00 0.00 46 1024.0
20260901191409 32 246 0.0 0.0 0.00 0.00 0.00 47 1024.1
20260901190905 32 279 0.0 0.0 0.00 0.00 0.00 55 1024.1
20260901190405 32 176 0.0 0.0 0.00 0.00 0.00 52 1024.1
20260901185903 32 297 0.0 0.0 0.00 0.00 0.00 55 1024.2
20260901185402 32 297 0.0 0.0 0.00 0.00 0.00 54 1024.5
20260901184857 32 297 0.0 0.0 0.00 0.00 0.00 55 1024.4
20260901184353 32 297 0.0 0.0 0.00 0.00 0.00 53 1024.5
20260901183848 32 297 0.0 0.0 0.00 0.00 0.00 53 1024.5
20260901183347 32 297 0.0 0.0 0.00 0.00 0.00 51 1024.5
20260901182843 32 297 0.0 0.0 0.00 0.00 0.00 52 1024.5
20260901182343 32 297 0.0 0.0 0.00 0.00 0.00 52 1024.5
20260901181838 33 297 0.0 0.0 0.00 0.00 0.00 51 1024.5
20260901181333 33 297 0.0 0.0 0.00 0.00 0.00 52 1024.3
20260901180832 33 296 0.0 0.0 0.00 0.00 0.00 51 1024.6
20260901180332 33 296 0.0 0.0 0.00 0.00 0.00 50 1024.6
20260901175830 33 295 0.0 0.0 0.00 0.00 0.00 48 1024.8
20260901175325 33 295 0.0 0.0 0.00 0.00 0.00 50 1024.7
20260901174820 33 296 0.0 0.0 0.00 0.00 0.00 50 1024.7
20260901174316 34 298 0.0 0.0 0.00 0.00 0.00 50 1025.1
20260901173811 35 279 0.0 0.0 0.00 0.00 0.00 49 1025.0
20260901173306 35 250 0.0 0.0 0.00 0.00 0.00 47 1024.9
20260901172803 34 271 0.0 0.0 0.00 0.00 0.00 48 1025.1
20260901172304 33 228 1.6 3.2 0.00 0.00 0.00 48 1025.2
20260901171800 32 281 0.0 0.0 0.00 0.00 0.00 52 1025.3
20260901171259 33 283 0.0 0.0 0.00 0.00 0.00 52 1025.4
20260901170759 33 279 0.0 0.0 0.00 0.00 0.00 52 1025.2
20260901170258 33 287 0.0 0.0 0.00 0.00 0.00 53 1025.4
20260901165757 33 244 0.0 0.0 0.00 0.00 0.00 51 1025.3